OBJECT A

Satellite information

Favourite Embed

Satellite Type and Status

UNKNOWNIN ORBIT

Key statistics

Satellite OBJECT A at a glance.

Uptime

16

Days in orbit

Revolutions

≈ 15.1

Per day

Orbit

SSO

Sun Synchronous Orbit

Inclination

97.7

Latest

Satellite identification and parameters

Extended collection of information and parameters for OBJECT A.

Object identification

Identified? True

Debris? False

Object name: OBJECT A

International designator: 2025-226A

Object number (NORAD): 65938

Object ID (CCSDS): 65938

Country: PEOPLES REPUBLIC OF CHINA (PRC)

Current information (Y/N): Y

Orbital parameters

Period: 95.255 minutes

Inclination: 97.6664 deg

SMA: 6909.067 km

Apoapsis: 540.949 km

Periapsis: 520.916 km

RAAN: 14.1395 deg

Eccentricy: 0.00144983

Argument of periapsis: 226.8067 deg

Mean anomaly: 133.1953 deg

Mean motion: 15.11727834 rev/day

Mean motion (dot): 0.00011528 rev/day2

B* drag term: 0.00067820553 1/REarth

Two-line elements (TLE)

Creation date: Oct. 27, 2025, 2:46 a.m.

Reference frame: TEME

Reference center: EARTH

Epoch: Oct. 26, 2025, 11:07 p.m. UTC

TLE line 0: 0 OBJECT A

TLE line 1: 1 65938U 25226A 25299.96322608 .00011528 00000-0 67821-3 0 9995

TLE line 2: 2 65938 97.6664 14.1395 0014498 226.8067 133.1953 15.11727834 2401

Live tracking on map

Real-time ground track for satellite OBJECT A.

In-orbit conjunctions

There are no conjunctions computed for OBJECT A, at the moment. Check back to stay up to date, as we update our databases every day.

Go to all conjunctions

Associated space launch

Carried 3 satellites to sun-synchronous orbit, including the Earth observation satellite Jilin-1 Wideband-02B-07. Details TBD.

OBJECT A was lifted into orbit during the mission ‘Gravity-1 | 3 satellites’, on board a Gravity-1 space rocket.

The launch took place on Oct. 11, 2025, 2:20 a.m. from Haiyang Spaceport.

For more information about the launch, click the button.

Launch to space Gravity-1 | 3 satellites
Gravity-1 | 3 satellites

Agency: N/A

Status: Launch Successful

Launch date: Oct. 11, 2025, 2:20 a.m. UTC

Rocket: Gravity-1

Launch pad: Haiyang Spaceport

Location: Sea Launch

...

Latest news about this satellite

News about space launch
Huge commercial Chinese solid rocket launches 3 satellites from barge in the Yellow Sea

Chinese launch startup Orienspace successfully conducted its second launch late Friday, with a Gravity-1 solid rocket lifting off from a barge in the Yellow Sea. The post Huge commercial Chinese solid rocket launches 3 satellites from barge in the Yellow...


Newsletter sign-up

Weekly statistics, charts and insights to help you stay on top of the space industry.